Location: Wells
(51.2093°N, 2.6446°W)
Time: 22:18:38
(UTC+01:00)

CUTE-I - Pass Details

Date: 17 March 2026
Orbit: 804 x 818 km, 98.7° (Epoch: 11 April)

Event Time Altitude Azimuth Distance (km) Brightness Sun altitude
Rises 18:55:12 0° 209° (SSW) 3,317 ? -6.6°
Reaches altitude 10° 18:58:14 10° 227° (SW) 2,388 ? -7.0°
Maximum altitude 19:01:54 19° 271° (W) 1,849 ? -7.6°
Drops below altitude 10° 19:05:35 10° 316° (NW) 2,396 ? -8.2°
Sets 19:08:39 0° 334° (NNW) 3,331 ? -8.6°
